Location: Korczew
(51.3586°N, 19.4491°E)
Time: 08:58:32
(UTC+00:00)

BlueWalker 3 - Pass Details

Date: 19 May 2025
Orbit: 460 x 472 km, 53.2° (Epoch: 16 June)

Event Time Altitude Azimuth Distance (km) Brightness Sun altitude
Rises 19:27:52 0° 288° (WNW) 2,493 6.7 -7.4°
Reaches altitude 10° 19:30:01 10° 287° (WNW) 1,618 5.6 -7.6°
Maximum altitude 19:33:39 73° 202° (SSW) 491 1.8 -8.0°
Enters shadow 19:37:16 10° 118° (ESE) 1,611 3.9 -8.4°
